AirNav   Everest Fuels
 
 1506 users online  

0MA1 Massachusetts General Hospital Heliport
Boston, Massachusetts, USA

GOING TO BOSTON?


FAA INFORMATION EFFECTIVE 28 FEBRUARY 2019

Location

FAA Identifier: 0MA1
Lat/Long: 42-21-49.2600N / 071-04-09.2200W
42-21.821000N / 071-04.153667W
42.3636833 / -71.0692278
(estimated)
Elevation: 195 ft. / 59 m (estimated)
Variation: 16W (1995)
Time zone: UTC -5 (UTC -4 during Daylight Saving Time)
Zip code: 02114

Heliport Operations

Heliport use: Private use, MEDICAL USE.
Activation date: 03/1998
Control tower: no
ARTCC: BOSTON CENTER
FSS: BRIDGEPORT FLIGHT SERVICE STATION
NOTAMs facility: FDC (NOTAM-D service not available)
Attendance: CONTINUOUS
Wind indicator: yes
Segmented circle: no

Heliport Communications

WX ASOS at BOS (2.8 nm E): PHONE 617-567-5762
WX ASOS at OWD (11 nm SW): 119.95 (781-762-4314)
WX ASOS at BED (12 nm NW): 124.6 (781-274-9733)
WX ASOS at BVY (15 nm NE): PHONE 978-921-5042

Nearby radio navigation aids

VOR radial/distance  VOR name  Freq  Var
BOSr292/3.6BOSTON VOR/DME112.7016W
LWMr192/22.6LAWRENCE VOR/DME112.5015W
MHTr171/33.1MANCHESTER VOR/DME114.4015W

 
NDB name  Hdg/Dist  Freq  Var  ID
SHAKER HILL155/7.325116WSKR ... -.- .-.
STOGE025/14.939715WOW --- .--
MARSHFIELD328/23.736816WIMR .. -- .-.
TAUNTON011/29.422716WTAN - .- -.
FITCHBURG125/32.536515WFIT ..-. .. -

Heliport Services

Runway Information

Helipad H1

Dimensions: 60 x 60 ft. / 18 x 18 m
Surface: asphalt
Latitude: 42-21.821000N
Longitude: 071-04.153667W
Elevation: 195.0 ft.
Traffic pattern: leftleft

Heliport Ownership and Management from official FAA records

Ownership: Privately-owned
Owner: GENERAL HOSPITAL CORPORATION
55 FRUID STREET
BOSTON, MA 02114
Phone 617-726-8616
Manager: BONNIE MICHELMAN
55 FRUIT ST
BOSTON, MA 02114
Phone (617) 726-7979

Additional Remarks

ROOFTOP.
FOR CD CTC BOSTON APCH AT 603-594-5554.

Instrument Procedures

There are no published instrument procedures at 0MA1.

Some nearby airports with instrument procedures:

KBOS - General Edward Lawrence Logan International Airport (3 nm E)
KOWD - Norwood Memorial Airport (11 nm SW)
KBED - Laurence G Hanscom Field Airport (12 nm NW)
KBVY - Beverly Regional Airport (15 nm NE)
6B6 - Minute Man Air Field (21 nm W)
 
Loc | Ops | Rwys | IFR | FBO | Links
Com | Nav | Svcs | Stats | Notes
Area around 0MA1 (Massachusetts General Hospital Heliport)
 
Road maps at: MapQuest Bing Google
 
Aerial photo
No photo
 
Sectional chart

 
Airport distance calculator
Flying to Massachusetts General Hospital Heliport? Find the distance to fly.

From to 0MA1

Sunrise and sunset
Times for 26-Mar-2019
 Local
(UTC-4)
 Zulu
(UTC)
Morning civil twilight06:1010:10
Sunrise06:3810:38
Sunset19:0223:02
Evening civil twilight19:3023:30

Current date and time
Zulu (UTC)  26-Mar-2019 19:36:31
Local (UTC-4)  26-Mar-2019 15:36:31
 
METAR
KBOS 
2nm E 
261754Z 36008KT 10SM FEW050 FEW250 06/M18 A3025 RMK AO2 SLP243 T00611183 10067 20017 58004
KOWD 
12nm S 
261753Z 01008G15KT 330V040 10SM CLR 07/M16 A3025 RMK AO2 SLP243 T00671161 10072 20017 58006
KBED 
12nm NW 
261756Z 36010G17KT 10SM CLR 06/M17 A3024 RMK AO2 SLP256 T00611172 10067 21006 58009
KBVY 
15nm NE 
261753Z 31016G21KT 10SM CLR 05/M16 A3024 RMK AO2 SLP238 T00501161 10056 21006 56005
TAF
KBOS 
2nm E 
261733Z 2618/2724 02006KT P6SM FEW050 FEW250 FM262000 01010KT P6SM SKC FM270000 33008KT P6SM SKC FM270300 35010G18KT P6SM SKC FM271000 36007KT P6SM SKC FM271400 02004KT P6SM SKC
KBED 
12nm NW 
261733Z 2618/2718 35012KT P6SM FEW250 FM270000 34005KT P6SM SKC FM270900 00000KT P6SM SKC FM271300 VRB03KT P6SM SKC
NOTAMs
Click for the latest NOTAMs
NOTAMs are issued by the DoD/FAA and will open in a separate window not controlled by AirNav.

 

 
 

Would you like to see your business listed on this page?

 If your business provides an interesting product or service to pilots, flight crews, aircraft, or users of the Massachusetts General Hospital Heliport, you should consider listing it here.  To start the listing process, click on the button below
 
Add a business
 

Other Pages about Massachusetts General Hospital Heliport

Update a link
 
Copyright © AirNav, LLC. All rights reserved. Privacy Policy  Contact